ASRTU-1 (AO-123)

Last updated on Sun Jun 21 2026 00:03:20 GMT+0000 (Coordinated Universal Time)

1 61781U 24199AY 26171.42296523 .00006434 00000+0 18716-3 0 9990 2 61781 97.2995 40.0642 0012089 300.9779 59.0277 15.35714948134428
UTC large
Height (km)
Speed (km/s)
/
Latitude / Longitude
Inclination (degrees)
Orbital Period (minutes)
Azimuth
Elevation
Range (km)
Doppler Factor

Next 0 passes for location: London (51.5072 / 0.1276)

No passes found over London.
ASRTU-1 (AO-123)